This demonstration page uses our WeatherBlox Daily Observations layout. Learn more.

Left ArrowRight Arrow

Hourly Observations for May 18, 2020

Temp ( °F °C ) Dew Point ( °F °C ) Humidity (%) Winds ( mph kmh ) Pressure ( in mb ) Visibility ( mi km ) Precip ( " mm )
12:56 am 00:56 Clear 49 9.4 46 7.8 90 90 NNW 7 11 30.05 1018 10 16 0.00 0.00
1:56 am 01:56 Clear 48 8.9 45 7.2 89 89 NNW 8 13 30.05 1018 10 16 0.00 0.00
2:56 am 02:56 Clear 47 8.3 45 7.2 93 93 NW 8 13 30.05 1018 10 16 0.00 0.00
3:56 am 03:56 Clear 46 7.8 44 6.7 93 93 NW 8 13 30.04 1017 10 16 0.00 0.00
4:56 am 04:56 Clear 46 7.8 44 6.7 93 93 NNW 9 15 30.04 1017 10 16 0.00 0.00
5:28 am 05:28 Mostly Cloudy 46 8 45 7 93 93 N 9 15 30.08 1019 10 16 0.00 0.00
5:56 am 05:56 Cloudy 47 8.3 46 7.8 97 97 N 12 19 30.05 1018 10 16 0.00 0.00
6:20 am 06:20 Cloudy 46 8 46 8 100 100 NNE 18 30 30.07 1018 10 16 0.00 0.00
6:56 am 06:56 Cloudy 47 8.3 46 7.8 97 97 NNE 15 24 30.04 1017 10 16 0.00 0.00
7:56 am 07:56 Cloudy 47 8.3 46 7.8 97 97 NE 16 26 30.05 1018 10 16 0.00 0.00
8:56 am 08:56 Cloudy 48 8.9 46 7.8 93 93 NNE 9 15 30.08 1019 10 16 0.00 0.00
9:12 am 09:12 Cloudy 48 9 46 8 94 94 N 7 11 30.10 1019 10 16 0.00 0.00
9:56 am 09:56 Cloudy 50 10 46 7.8 86 86 N 6 9 30.09 1019 10 16 0.00 0.00
10:45 am 10:45 Cloudy 52 11 46 8 82 82 NNW 10 17 30.08 1019 10 16 0.00 0.00
10:56 am 10:56 Cloudy 51 10.6 47 8.3 86 86 N 9 15 30.09 1019 10 16 0.00 0.00
11:56 am 11:56 Cloudy 56 13.3 47 8.3 72 72 N 7 11 30.07 1018 10 16 0.00 0.00
12:48 pm 12:48 Partly Cloudy 57 14 48 9 72 72 N 7 11 30.03 1017 10 16 0.00 0.00
12:56 pm 12:56 Mostly Sunny 59 15 49 9.4 69 69 NW 8 13 30.05 1018 10 16 0.00 0.00
1:56 pm 13:56 Sunny 63 17.2 50 10 63 63 N 8 13 30.03 1017 10 16 0.00 0.00
2:56 pm 14:56 Sunny 66 18.9 50 10 56 56 N 8 13 30.00 1016 10 16 0.00 0.00
3:56 pm 15:56 Sunny 69 20.6 50 10 51 51 N 5 7 29.98 1015 10 16 0.00 0.00
4:56 pm 16:56 Sunny 70 21.1 49 9.4 47 47 N 10 17 29.95 1014 10 16 0.00 0.00
5:56 pm 17:56 Sunny 70 21.1 49 9.4 47 47 NNE 9 15 29.95 1014 10 16 0.00 0.00
6:56 pm 18:56 Sunny 70 21.1 49 9.4 47 47 NE 10 17 29.93 1014 10 16 0.00 0.00
7:56 pm 19:56 Sunny 66 18.9 50 10 56 56 NE 9 15 29.95 1014 10 16 0.00 0.00
8:56 pm 20:56 Clear 61 16.1 49 9.4 65 65 NE 8 13 29.96 1015 10 16 0.00 0.00
9:56 pm 21:56 Clear 59 15 50 10 72 72 ENE 12 19 29.98 1015 10 16 0.00 0.00
10:56 pm 22:56 Clear 55 12.8 48 8.9 77 77 E 14 22 30.01 1016 10 16 0.00 0.00
11:56 pm 23:56 Clear 52 11.1 47 8.3 83 83 E 10 17 30.02 1017 10 16 0.00 0.00

Powered by AerisWeather